Regional Weather Roundup
Issued by NWS

Home | Current Version | Previous Version | Graphics & Text | Print | Product List | Glossary On
Versions: 1 2 3 4 5 6 7 8 9 10 11 12 13 14 15 16 17 18 19 20 21 22 23 24 25 26 27 28 29 30 31 32 33 34 35 36 37 38 39 40 41 42 43 44 45 46 47 48 49 50
000
ASUS45 KABQ 292310
RWRNM
NEW MEXICO REGIONAL WEATHER ROUNDUP
NATIONAL WEATHER SERVICE ALBUQUERQUE NM
500 PM MDT WED MAR 29 2017

NOTE: "FAIR" MEANS FEW OR NO CLOUDS BELOW 12,000 FEET AGL WITH NO
       SIGNIFICANT WEATHER OR OBSTRUCTIONS TO VISION.

      THIS PRODUCT IS RELEASED AS TWO VERSIONS.  ONE VERSION NEAR
      THE TOP OF THE HOUR CONTAINING PRELIMINARY DATA FROM ALBUQUERQUE
      AND OTHER STATIONS.  A FINAL VERSION WITH ADDITIONAL DATA IS
      ISSUED ABOUT 10 MINUTES AFTER THE HOUR.

NMZ501-503-504-510>518-300000-
NORTHWEST PLATEAU/NORTHCENTRAL MOUNTAINS

CITY           SKY/WX    TMP DP  RH WIND       PRES   REMARKS
FARMINGTON     FAIR      67  12  12 NW23G31   29.90F
LOS ALAMOS     CLOUDY    51  28  41 NE3       30.02S
SANTA FE       PTSUNNY   57  30  35 NW14      29.99R
TAOS             N/A     52  27  37 N3        30.00S
ANGEL FIRE     PTSUNNY   45  25  45 SE5       30.03S

$$
NMZ402-403-502-505>509-300000-
WESTCENTRAL MOUNTAINS/SOUTHWEST MOUNTAINS

CITY           SKY/WX    TMP DP  RH WIND       PRES   REMARKS
GALLUP         FAIR      61  19  19 N10G17    30.02S
GRANTS         FAIR      58  22  24 NW16G26   30.04R
SILVER CITY    PTSUNNY   60  31  32 NW16      30.03S

$$
NMZ407-409-411-412-300000-
SOUTHERN DESERTS

CITY           SKY/WX    TMP DP  RH WIND       PRES   REMARKS
DEMING         CLOUDY    65  30  27 SW8       30.00R
LAS CRUCES     PTSUNNY   66  28  24 NW5       30.01R
HOLLOMAN AFB   PTSUNNY   60  35  39 NE5       30.03S
ALAMOGORDO       N/A    N/A N/A N/A MISG        N/A
T OR C         CLOUDY    60  34  37 CALM      29.99R

$$
NMZ519>523-300000-
CENTRAL VALLEYS/CENTRAL HIGHLANDS

CITY           SKY/WX    TMP DP  RH WIND       PRES   REMARKS
ALBUQUERQUE    PTSUNNY   60  32  34 NW9       29.97S
DOUBLE EAGLE   PTSUNNY   57  28  33 NW13G24   29.99S
MORIARTY ARPT  PTSUNNY   58  30  34 N14       30.01R
CLINES CORNERS CLOUDY    45  32  60 E12       30.04R
BELEN          PTSUNNY   63  31  29 NW12      29.98S
SOCORRO        PTSUNNY   62  32  32 N8        29.97F

$$
NMZ524>526-539-540-300000-
SOUTHCENTRAL MOUNTAINS

CITY           SKY/WX    TMP DP  RH WIND       PRES   REMARKS
RUIDOSO        CLOUDY    41  34  75 SE7       30.07S

$$
NMZ527>531-300000-
NORTHEAST HIGHLANDS/NORTHEAST PLAINS

CITY           SKY/WX    TMP DP  RH WIND       PRES   REMARKS
LAS VEGAS      CLOUDY    47  29  49 E7        30.02R
RATON          FAIR      47  32  56 N18G26    30.00R
CLAYTON        PTSUNNY   48  35  60 N21G28    29.96S

$$
NMZ532>537-300000-
EASTCENTRAL PLAINS

CITY           SKY/WX    TMP DP  RH WIND       PRES   REMARKS
TUCUMCARI      FAIR      54  37  52 N21G32    29.96R
CANNON AFB     FAIR      50  43  78 N17G24    29.97R
CLOVIS AIRPORT FAIR      46  36  66 N22       29.98S

$$
NMZ028-029-538-300000-
SOUTHEAST PLAINS

CITY           SKY/WX    TMP DP  RH WIND       PRES   REMARKS
ROSWELL        FAIR      57  37  47 NE10        N/A
ARTESIA        FAIR      57  37  47 NE14G21   30.03R
CARLSBAD       FAIR      57  36  45 N20       30.02R
HOBBS          PTSUNNY   54  39  58 N14       30.01R


$$




USA.gov is the U.S. government's official web portal to all federal, state and local government web resources and services.